Previsão horária em Kabaksola

Hoje, 24 Junho, Quinta-feira

Tempo Temperatura Precipitação Vento Pressão Humidade
00:00 +20°C° 0.2 mm 2 m/s 750 mmHg 85%
01:00 +20°C° 0 mm 2 m/s 750 mmHg 86%
02:00 +20°C° 0 mm 1 m/s 751 mmHg 88%
03:00 +20°C° 0 mm 1 m/s 751 mmHg 89%
04:00 +21°C° 0 mm 1 m/s 751 mmHg 86%
05:00 +22°C° 0 mm 1 m/s 751 mmHg 82%
06:00 +24°C° 0 mm 1 m/s 751 mmHg 79%
07:00 +24°C° 0 mm 0 m/s 751 mmHg 71%
08:00 +26°C° 0 mm 0 m/s 751 mmHg 64%
09:00 +27°C° 0 mm 0 m/s 751 mmHg 56%
10:00 +29°C° 0 mm 0 m/s 751 mmHg 52%
11:00 +32°C° 0 mm 1 m/s 751 mmHg 47%
12:00 +33°C° 0 mm 1 m/s 751 mmHg 43%
13:00 +33°C° 0 mm 1 m/s 751 mmHg 42%
14:00 +34°C° 0 mm 2 m/s 750 mmHg 41%
15:00 +34°C° 0 mm 2 m/s 750 mmHg 40%
16:00 +32°C° 0 mm 2 m/s 750 mmHg 46%
17:00 +32°C° 0 mm 1 m/s 749 mmHg 52%
18:00 +31°C° 0 mm 1 m/s 749 mmHg 58%
19:00 +29°C° 0 mm 1 m/s 749 mmHg 61%
20:00 +27°C° 0 mm 2 m/s 749 mmHg 65%
21:00 +26°C° 0 mm 2 m/s 749 mmHg 68%
22:00 +25°C° 0.2 mm 2 m/s 749 mmHg 72%
23:00 +24°C° 0.2 mm 2 m/s 748 mmHg 76%

Amanhã, 25 Junho, Sexta-feira

Tempo Temperatura Precipitação Vento Pressão Humidade
00:00 +23°C° 0.2 mm 2 m/s 748 mmHg 80%
01:00 +23°C° 0 mm 2 m/s 748 mmHg 83%
02:00 +23°C° 0 mm 2 m/s 748 mmHg 86%
03:00 +21°C° 0 mm 2 m/s 748 mmHg 89%
04:00 +23°C° 0 mm 2 m/s 748 mmHg 86%
05:00 +24°C° 0 mm 2 m/s 748 mmHg 83%
06:00 +25°C° 0 mm 2 m/s 748 mmHg 80%
07:00 +27°C° 0 mm 2 m/s 748 mmHg 71%
08:00 +29°C° 0 mm 3 m/s 748 mmHg 61%
09:00 +33°C° 0 mm 3 m/s 748 mmHg 52%
10:00 +33°C° 0 mm 3 m/s 748 mmHg 48%
11:00 +34°C° 0 mm 4 m/s 748 mmHg 43%
12:00 +35°C° 0 mm 4 m/s 748 mmHg 39%
13:00 +35°C° 0 mm 4 m/s 748 mmHg 39%
14:00 +35°C° 0 mm 4 m/s 748 mmHg 39%
15:00 +36°C° 0 mm 4 m/s 747 mmHg 40%
16:00 +35°C° 0 mm 3 m/s 747 mmHg 45%
17:00 +34°C° 0 mm 2 m/s 746 mmHg 51%
18:00 +32°C° 0 mm 2 m/s 746 mmHg 57%
19:00 +29°C° 0.1 mm 2 m/s 746 mmHg 58%
20:00 +27°C° 0.1 mm 2 m/s 746 mmHg 59%
21:00 +24°C° 0.1 mm 3 m/s 746 mmHg 60%
22:00 +23°C° 0 mm 2 m/s 746 mmHg 65%
23:00 +21°C° 0 mm 2 m/s 746 mmHg 69%

Depois de amanhã, 26 Junho, Sábado

Tempo Temperatura Precipitação Vento Pressão Humidade
00:00 +20°C° 0 mm 2 m/s 747 mmHg 74%
01:00 +20°C° 0.2 mm 1 m/s 747 mmHg 79%
02:00 +20°C° 0.2 mm 1 m/s 747 mmHg 83%
03:00 +19°C° 0.2 mm 1 m/s 747 mmHg 87%
04:00 +20°C° 0 mm 1 m/s 747 mmHg 85%
05:00 +20°C° 0 mm 2 m/s 746 mmHg 83%
06:00 +23°C° 0 mm 2 m/s 746 mmHg 81%
07:00 +25°C° 0 mm 2 m/s 746 mmHg 74%
08:00 +27°C° 0 mm 2 m/s 746 mmHg 67%
09:00 +29°C° 0 mm 2 m/s 746 mmHg 60%
10:00 +30°C° 0 mm 3 m/s 746 mmHg 56%
11:00 +31°C° 0 mm 3 m/s 746 mmHg 51%
12:00 +33°C° 0 mm 3 m/s 746 mmHg 47%
13:00 +34°C° 0 mm 4 m/s 746 mmHg 46%
14:00 +34°C° 0 mm 4 m/s 746 mmHg 45%
15:00 +34°C° 0 mm 4 m/s 746 mmHg 44%
16:00 +32°C° 0.1 mm 4 m/s 745 mmHg 51%
17:00 +29°C° 0.1 mm 4 m/s 745 mmHg 58%
18:00 +28°C° 0.1 mm 4 m/s 745 mmHg 65%
19:00 +26°C° 0.3 mm 3 m/s 745 mmHg 72%
20:00 +24°C° 0.3 mm 3 m/s 746 mmHg 80%
21:00 +21°C° 0.3 mm 2 m/s 746 mmHg 88%
22:00 +21°C° 0.2 mm 2 m/s 746 mmHg 90%
23:00 +21°C° 0.2 mm 2 m/s 746 mmHg 93%

27 Junho, Domingo

Tempo Temperatura Precipitação Vento Pressão Humidade
00:00 +21°C° 0.2 mm 1 m/s 746 mmHg 95%
01:00 +21°C° 0 mm 1 m/s 746 mmHg 95%
02:00 +21°C° 0 mm 1 m/s 746 mmHg 95%
03:00 +21°C° 0 mm 1 m/s 746 mmHg 95%
04:00 +22°C° 0 mm 1 m/s 746 mmHg 90%
05:00 +23°C° 0 mm 1 m/s 746 mmHg 85%
06:00 +24°C° 0 mm 1 m/s 746 mmHg 81%
07:00 +26°C° 0 mm 1 m/s 746 mmHg 73%
08:00 +28°C° 0 mm 1 m/s 746 mmHg 65%
09:00 +30°C° 0 mm 1 m/s 746 mmHg 56%
10:00 +31°C° 0.1 mm 1 m/s 746 mmHg 52%
11:00 +32°C° 0.1 mm 2 m/s 746 mmHg 48%
12:00 +34°C° 0.1 mm 2 m/s 747 mmHg 43%
13:00 +34°C° 0 mm 2 m/s 747 mmHg 45%
14:00 +32°C° 0 mm 2 m/s 747 mmHg 46%
15:00 +32°C° 0 mm 2 m/s 747 mmHg 47%
16:00 +32°C° 0 mm 2 m/s 746 mmHg 51%
17:00 +31°C° 0 mm 2 m/s 746 mmHg 54%
18:00 +30°C° 0 mm 2 m/s 746 mmHg 58%
19:00 +28°C° 0.3 mm 2 m/s 746 mmHg 66%
20:00 +25°C° 0.3 mm 2 m/s 747 mmHg 75%
21:00 +23°C° 0.3 mm 1 m/s 747 mmHg 84%
22:00 +23°C° 0 mm 1 m/s 747 mmHg 85%
23:00 +22°C° 0 mm 1 m/s 747 mmHg 85%

28 Junho, Segunda-feira

Tempo Temperatura Precipitação Vento Pressão Humidade
00:00 +22°C° 0 mm 1 m/s 747 mmHg 86%
01:00 +21°C° 0 mm 1 m/s 747 mmHg 87%
02:00 +21°C° 0 mm 1 m/s 747 mmHg 87%
03:00 +21°C° 0 mm 1 m/s 747 mmHg 88%
04:00 +22°C° 0 mm 1 m/s 747 mmHg 86%
05:00 +23°C° 0 mm 1 m/s 747 mmHg 84%
06:00 +24°C° 0 mm 1 m/s 747 mmHg 82%
07:00 +25°C° 0 mm 1 m/s 747 mmHg 75%
08:00 +27°C° 0 mm 1 m/s 747 mmHg 69%
09:00 +29°C° 0 mm 2 m/s 747 mmHg 62%
10:00 +30°C° 0 mm 2 m/s 747 mmHg 58%
11:00 +31°C° 0 mm 2 m/s 747 mmHg 54%
12:00 +32°C° 0 mm 2 m/s 747 mmHg 51%
13:00 +31°C° 0.1 mm 2 m/s 747 mmHg 55%
14:00 +30°C° 0.1 mm 2 m/s 747 mmHg 59%
15:00 +30°C° 0.1 mm 2 m/s 747 mmHg 62%
16:00 +29°C° 0.5 mm 2 m/s 746 mmHg 67%
17:00 +28°C° 0.5 mm 2 m/s 746 mmHg 72%
18:00 +27°C° 0.5 mm 2 m/s 746 mmHg 76%
19:00 +26°C° 0.1 mm 2 m/s 746 mmHg 80%
20:00 +25°C° 0.1 mm 2 m/s 746 mmHg 84%
21:00 +24°C° 0.1 mm 2 m/s 746 mmHg 88%
22:00 +23°C° 0.5 mm 2 m/s 746 mmHg 90%
23:00 +23°C° 0.5 mm 2 m/s 746 mmHg 92%

29 Junho, Terça-feira

Tempo Temperatura Precipitação Vento Pressão Humidade
00:00 +21°C° 0.5 mm 2 m/s 746 mmHg 94%
01:00 +21°C° 0.8 mm 2 m/s 746 mmHg 95%
02:00 +20°C° 0.8 mm 2 m/s 746 mmHg 96%
03:00 +20°C° 0.8 mm 2 m/s 746 mmHg 97%
04:00 +21°C° 0 mm 2 m/s 746 mmHg 95%
05:00 +23°C° 0 mm 2 m/s 746 mmHg 92%
06:00 +24°C° 0 mm 3 m/s 746 mmHg 90%
07:00 +25°C° 0.4 mm 3 m/s 746 mmHg 85%
08:00 +26°C° 0.4 mm 3 m/s 746 mmHg 79%
09:00 +28°C° 0.4 mm 4 m/s 746 mmHg 74%
10:00 +29°C° 0.1 mm 4 m/s 746 mmHg 68%
11:00 +30°C° 0.1 mm 4 m/s 746 mmHg 62%
12:00 +32°C° 0.1 mm 4 m/s 746 mmHg 56%
13:00 +32°C° 0.4 mm 4 m/s 745 mmHg 57%
14:00 +32°C° 0.4 mm 4 m/s 745 mmHg 57%
15:00 +32°C° 0.4 mm 4 m/s 745 mmHg 58%
16:00 +30°C° 0.6 mm 4 m/s 745 mmHg 65%
17:00 +28°C° 0.6 mm 3 m/s 745 mmHg 73%
18:00 +27°C° 0.6 mm 3 m/s 744 mmHg 80%
19:00 +26°C° 0.1 mm 3 m/s 744 mmHg 83%
20:00 +25°C° 0.1 mm 2 m/s 744 mmHg 86%
21:00 +24°C° 0.1 mm 2 m/s 744 mmHg 89%
22:00 +23°C° 0.3 mm 2 m/s 744 mmHg 91%
23:00 +23°C° 0.3 mm 1 m/s 744 mmHg 92%
Mostrar mais

Necessitamos do seu Consentimento

A Meteoprog e os seus Fornecedores de Serviços podem armazenar e aceder a dados pessoais como cookies, identificadores do dispositivo ou outras tecnologias semelhantes existentes no seu dispositivo e processar estes dados para personalizar conteúdos e anúncios, assim como funcionalidades nas redes sociais e análise de tráfego.

  • Armazenar e/ou aceder a informações no seu dispositivo

    Os cookies, identificadores do dispositivo ou outras informações podem ser armazenados ou acedidos no seu dispositivo, para os fins acima indicados.

  • Anúncios e conteúdos personalizados, medição de anúncios e conteúdos, dados sobre o público-alvo e desenvolvimento de produtos

    Os anúncios e os conteúdos podem ser personalizados com base num perfil. Podem ser adicionados dados adicionais para uma maior personalização dos anúncios e dos conteúdos. A eficácia dos anúncios e dos conteúdos pode ser medida. Podem ser obtidas informações sobre o público que visualizou os anúncios e os conteúdos. Estes dados podem ser usados para desenvolver ou melhorar sistemas, softwares ou a experiência do utilizador.

Ao clicar em "Eu concordo”, permitirá o uso de cookies, identificadores do dispositivo e web beacons mencionados ou outras tecnologias semelhantes. As configurações do navegador do seu dispositivo podem ser alteradas.

Para certos fins, podem ser invocados interesses legítimos ao invés de consentimento. Pode ler mais informação sobre este assunto na nossa Política de Privacidade e Cookies.